Weather History for Galliano, LA

Change the Weather History Date:

Sunday, March 10, 2013

  Actual Average (KAXO) Record (KAXO)
Temperature  
Mean Temperature 72 °F -  
Max Temperature 79 °F 62 °F 77 °F (2009)
Min Temperature 66 °F 57 °F 46 °F (1998)
Cooling Degree Days 8    
Growing Degree Days 22 (Base 50)    
Moisture  
Dew Point 66 °F    
Average Humidity 82    
Maximum Humidity 95    
Minimum Humidity 65    
Precipitation  
Precipitation 0.00 in - - ()
Sea Level Pressure  
Sea Level Pressure 29.92 in    
Wind  
Wind Speed 11 mph (SE)    
Max Wind Speed 25 mph    
Max Gust Speed 33 mph    
Visibility 9 miles    
Events      
Averages and records for this station are not official NWS values.
T = Trace of Precipitation, MM = Missing Value Source: NWS Daily Summary

Daily Weather History Graph

Daily Weather History Graph

Search for Another Location

Airport:

Trip Planner

Search our weather history database for the weather conditions in past years. The results will help you decide how hot, cold, wet, or windy it might be!

Date:

Astronomy

Mar. 10, 2013 Rise Set
Actual Time 7:16 AM CDT 7:06 PM CDT
Civil Twilight 6:52 AM CDT 7:30 PM CDT
Nautical Twilight 6:25 AM CDT 7:57 PM CDT
Astronomical Twilight 5:57 AM CDT 8:25 PM CDT
Moon 6:13 AM CDT (3/10) 6:15 PM CDT (3/10)
Length of Visible Light 12h 37m
Length of Day
11h 50m
Waning Crescent, 2% of the Moon is Illuminated
Mar 10
Waning Crescent
Mar 11
New
Mar 19
First Quarter
Mar 27
Full
Apr 2
Last Quarter

Hourly Weather History & Observations

Time (CDT) Temp. Dew Point Humidity Pressure Visibility Wind Dir Wind Speed Gust Speed Precip Events Conditions
12:15 AM 67.5 °F 63.0 °F 85% 29.95 in 10.0 mi ESE 9.2 mph - N/A   Unknown
12:35 AM 67.1 °F 63.0 °F 87% 29.95 in 10.0 mi ESE 8.1 mph - N/A   Unknown
12:55 AM 67.1 °F 63.0 °F 87% 29.95 in 10.0 mi ESE 9.2 mph - N/A   Unknown
1:15 AM 67.1 °F 63.1 °F 87% 29.94 in 10.0 mi ESE 9.2 mph - N/A   Unknown
1:35 AM 67.5 °F 63.5 °F 87% 29.93 in 10.0 mi ESE 9.2 mph 16.1 mph N/A   Unknown
1:55 AM 67.5 °F 63.5 °F 87% 29.93 in 10.0 mi ESE 9.2 mph - N/A   Unknown
3:15 AM 67.3 °F 63.3 °F 87% 29.92 in 10.0 mi East 8.1 mph - N/A   Unknown
3:35 AM 67.3 °F 63.3 °F 87% 29.92 in 10.0 mi East 6.9 mph - N/A   Unknown
3:55 AM 67.1 °F 63.1 °F 87% 29.90 in 10.0 mi East 10.4 mph - N/A   Unknown
4:15 AM 67.3 °F 63.5 °F 88% 29.89 in 10.0 mi ESE 12.7 mph - N/A   Unknown
4:35 AM 67.5 °F 63.7 °F 88% 29.89 in 10.0 mi ESE 11.5 mph - N/A   Unknown
4:55 AM 67.6 °F 63.9 °F 88% 29.90 in 10.0 mi East 10.4 mph - N/A   Unknown
5:15 AM 68.0 °F 64.4 °F 88% 29.91 in 10.0 mi ESE 10.4 mph - N/A   Unknown
5:35 AM 68.4 °F 64.6 °F 88% 29.91 in 10.0 mi ESE 9.2 mph - N/A   Unknown
5:55 AM 68.2 °F 64.4 °F 88% 29.90 in 10.0 mi ESE 8.1 mph - N/A   Unknown
6:15 AM 67.3 °F 64.2 °F 90% 29.90 in 10.0 mi ESE 6.9 mph - N/A   Unknown
6:35 AM 66.7 °F 64.0 °F 91% 29.91 in 7.0 mi ESE 6.9 mph - N/A   Unknown
7:15 AM 66.6 °F 64.4 °F 93% 29.91 in 7.0 mi East 6.9 mph - N/A   Unknown
7:35 AM 66.6 °F 64.0 °F 92% 29.91 in 7.0 mi East 6.9 mph - N/A   Unknown
7:55 AM 67.5 °F 64.4 °F 90% 29.91 in 7.0 mi ESE 9.2 mph - N/A   Unknown
8:15 AM 68.9 °F 64.9 °F 87% 29.92 in 7.0 mi ESE 10.4 mph - N/A   Unknown
8:35 AM 70.5 °F 65.3 °F 83% 29.92 in 10.0 mi ESE 11.5 mph 17.3 mph N/A   Unknown
8:55 AM 72.0 °F 65.3 °F 79% 29.93 in 10.0 mi ESE 15.0 mph - N/A   Unknown
9:15 AM 73.2 °F 65.7 °F 77% 29.94 in 10.0 mi ESE 16.1 mph 24.2 mph N/A   Unknown
9:35 AM 74.3 °F 66.0 °F 75% 29.94 in 7.0 mi SE 15.0 mph 20.7 mph N/A   Unknown
9:55 AM 74.8 °F 65.8 °F 73% 29.95 in 10.0 mi SE 16.1 mph 26.5 mph N/A   Unknown
10:15 AM 75.0 °F 65.8 °F 73% 29.96 in 10.0 mi SE 19.6 mph 27.6 mph N/A   Unknown
10:35 AM 75.9 °F 66.0 °F 71% 29.98 in 10.0 mi SE 18.4 mph 26.5 mph N/A   Unknown
10:55 AM 75.4 °F 66.0 °F 73% 29.99 in 10.0 mi SE 15.0 mph 25.3 mph N/A   Unknown
11:15 AM 75.6 °F 66.4 °F 73% 29.99 in 10.0 mi ESE 17.3 mph 24.2 mph N/A   Unknown
11:35 AM 76.3 °F 66.4 °F 71% 29.99 in 10.0 mi SE 17.3 mph 24.2 mph N/A   Unknown
11:55 AM 76.1 °F 66.4 °F 72% 29.99 in 10.0 mi SE 18.4 mph 25.3 mph N/A   Unknown
12:15 PM 77.7 °F 66.2 °F 68% 29.98 in 10.0 mi SE 20.7 mph 29.9 mph N/A   Unknown
12:35 PM 78.1 °F 65.8 °F 66% 29.98 in 10.0 mi SE 25.3 mph 33.4 mph N/A   Unknown
12:55 PM 79.0 °F 66.4 °F 65% 29.98 in 10.0 mi SE 23.0 mph 29.9 mph N/A   Unknown
1:15 PM 78.4 °F 66.6 °F 67% 29.97 in 10.0 mi SE 23.0 mph 29.9 mph N/A   Unknown
1:35 PM 76.5 °F 66.4 °F 71% 29.97 in 10.0 mi SE 17.3 mph 28.8 mph N/A   Unknown
1:55 PM 78.8 °F 66.6 °F 66% 29.96 in 10.0 mi SSE 23.0 mph 27.6 mph N/A   Unknown
2:15 PM 77.4 °F 67.1 °F 71% 29.95 in 10.0 mi South 13.8 mph - N/A   Unknown
2:35 PM 77.0 °F 67.3 °F 72% 29.95 in 10.0 mi SSE 13.8 mph 19.6 mph N/A   Unknown
2:55 PM 77.7 °F 67.8 °F 71% 29.94 in 10.0 mi SSE 12.7 mph 19.6 mph N/A   Unknown
3:15 PM 79.0 °F 67.8 °F 69% 29.93 in 10.0 mi SSE 18.4 mph 21.9 mph N/A   Unknown
3:35 PM 78.3 °F 67.5 °F 69% 29.93 in 10.0 mi SSE 16.1 mph 21.9 mph N/A   Unknown
3:55 PM 78.6 °F 67.1 °F 68% 29.92 in 10.0 mi SSE 16.1 mph 24.2 mph N/A   Unknown
4:15 PM 79.2 °F 66.7 °F 66% 29.91 in 10.0 mi SE 16.1 mph 19.6 mph N/A   Unknown
4:35 PM 77.7 °F 66.9 °F 69% 29.90 in 10.0 mi SE 17.3 mph - N/A   Unknown
4:55 PM 77.2 °F 67.5 °F 72% 29.89 in 10.0 mi ESE 19.6 mph 25.3 mph N/A   Unknown
5:15 PM 76.1 °F 67.1 °F 74% 29.89 in 10.0 mi SE 15.0 mph 23.0 mph N/A   Unknown
5:35 PM 76.1 °F 67.1 °F 74% 29.89 in 10.0 mi SE 16.1 mph 23.0 mph N/A   Unknown
5:55 PM 75.2 °F 67.1 °F 76% 29.89 in 10.0 mi SE 12.7 mph - N/A   Unknown
6:15 PM 75.0 °F 66.9 °F 76% 29.89 in 10.0 mi SE 10.4 mph 18.4 mph N/A   Unknown
6:35 PM 74.3 °F 66.7 °F 77% 29.89 in 10.0 mi SE 10.4 mph - N/A   Unknown
6:55 PM 73.4 °F 66.6 °F 79% 29.89 in 10.0 mi ESE 10.4 mph 16.1 mph N/A   Unknown
7:15 PM 72.3 °F 67.1 °F 84% 29.89 in 10.0 mi ESE 6.9 mph - N/A   Unknown
7:35 PM 71.6 °F 67.1 °F 86% 29.89 in 10.0 mi ESE 8.1 mph - N/A   Unknown
7:55 PM 70.9 °F 67.3 °F 88% 29.89 in 10.0 mi ESE 6.9 mph - N/A   Unknown
8:15 PM 70.2 °F 67.6 °F 92% 29.89 in 7.0 mi ESE 6.9 mph - N/A   Unknown
8:35 PM 69.8 °F 67.3 °F 92% 29.89 in 7.0 mi ESE 4.6 mph - N/A   Unknown
9:15 PM 68.2 °F 66.4 °F 94% 29.91 in 7.0 mi SE 4.6 mph - N/A   Unknown
9:35 PM 68.7 °F 66.9 °F 94% 29.90 in 10.0 mi SE 8.1 mph - N/A   Unknown
9:55 PM 69.3 °F 67.1 °F 93% 29.90 in 7.0 mi SE 6.9 mph - N/A   Unknown
10:15 PM 68.9 °F 66.7 °F 93% 29.91 in 7.0 mi SE 5.8 mph - N/A   Unknown
10:35 PM 68.4 °F 66.7 °F 95% 29.91 in 7.0 mi SE 6.9 mph - N/A   Unknown
10:55 PM 68.2 °F 66.7 °F 95% 29.91 in 7.0 mi SE 8.1 mph - N/A   Unknown
11:15 PM 68.4 °F 66.7 °F 95% 29.91 in 7.0 mi SE 9.2 mph - N/A   Unknown
11:35 PM 68.5 °F 66.7 °F 94% 29.91 in 7.0 mi SE 8.1 mph - N/A   Unknown
12:15 AM 68.9 °F 66.7 °F 93% 29.91 in 7.0 mi SSE 6.9 mph - N/A   Unknown
12:35 AM 68.9 °F 66.9 °F 93% 29.90 in 7.0 mi ESE 8.1 mph - N/A   Unknown
12:55 AM 68.9 °F 67.1 °F 94% 29.91 in 7.0 mi SSE 8.1 mph - N/A   Unknown